Location: Newark
(41.0400°S, 62.7845°W)
Time: 22:56:35
(UTC+00:00)

Vanguard 2 - Pass Details

Date: 06 December 2021
Orbit: 554 x 2935 km, 32.9° (Epoch: 27 January)

Event Time Altitude Azimuth Distance (km) Brightness Sun altitude
Rises 00:59:05 0° 346° (NNW) 6,147 11.8 -13.6°
Reaches altitude 10° 01:04:24 10° 359° (N) 5,428 11.4 -14.3°
Maximum altitude 01:15:47 22° 42° (NE) 4,776 10.9 -15.7°
Drops below altitude 10° 01:27:29 10° 84° (E) 5,648 11.5 -17.0°
Sets 01:33:03 0° 97° (E) 6,459 12.0 -17.7°
